Weather History for KLCH - November, 2012

Change the Weather History Date:

Thursday, November 8, 2012

  Actual Average Record
Temperature  
Mean Temperature 60 °F 63 °F  
Max Temperature 72 °F 74 °F 88 °F (1916)
Min Temperature 47 °F 53 °F 30 °F (1913)
Degree Days  
Heating Degree Days 5 4  
Month to date heating degree days 12 27  
Since 1 July heating degree days 54 63  
Cooling Degree Days 0 2  
Month to date cooling degree days 30 23  
Year to date cooling degree days 3168 2756  
Growing Degree Days 9 (Base 50)    
Moisture  
Dew Point 46 °F    
Average Humidity 64    
Maximum Humidity 89    
Minimum Humidity 38    
Precipitation  
Precipitation 0.00 in 0.16 in 3.14 in (1944)
Month to date precipitation 1.56 1.29  
Year to date precipitation 66.14 49.67  
Snow  
Snow 0.00 in 0.00 in 0.00 in ()
Month to date snowfall 0.0 0.0  
Since 1 July snowfall 0.0 0.0  
Since 1 September snowfall 0.0 0.0  
Snow Depth 0.00 in    
Sea Level Pressure  
Sea Level Pressure 30.20 in    
Wind  
Wind Speed 6 mph (ESE)    
Max Wind Speed 13 mph    
Max Gust Speed 15 mph    
Visibility 10 miles    
Events      
T = Trace of Precipitation, MM = Missing Value Source: NWS Daily Summary

Daily Weather History Graph

Daily Weather History Graph

Search for Another Location

Airport or City:

Trip Planner

Search our weather history database for the weather conditions in past years. The results will help you decide how hot, cold, wet, or windy it might be!

Date:

Astronomy

Nov. 08, 2012 Rise Set
Actual Time 6:32 AM CST 5:20 PM CST
Civil Twilight 6:07 AM CST 5:45 PM CST
Nautical Twilight 5:39 AM CST 6:13 PM CST
Astronomical Twilight 5:10 AM CST 6:42 PM CST
Moon 12:53 AM CST (11/8) 1:39 PM CST (11/8)
Length of Visible Light 11h 37m
Length of Day
10h 47m
Waning Crescent, 32% of the Moon is Illuminated
Nov 8
Waning Crescent
Nov 13
New
Nov 20
First Quarter
Nov 28
Full
Dec 6
Last Quarter

Hourly Weather History & Observations

Time (CST) Temp. Dew Point Humidity Pressure Visibility Wind Dir Wind Speed Gust Speed Precip Events Conditions
12:53 AM 48.0 °F 45.0 °F 89% 30.17 in 10.0 mi Calm Calm - N/A   Clear
1:53 AM 52.0 °F 42.1 °F 69% 30.17 in 10.0 mi ENE 4.6 mph - N/A   Clear
2:53 AM 51.1 °F 39.9 °F 66% 30.18 in 10.0 mi East 6.9 mph - N/A   Clear
3:53 AM 50.0 °F 41.0 °F 71% 30.19 in 10.0 mi East 6.9 mph - N/A   Clear
4:53 AM 48.9 °F 41.0 °F 74% 30.19 in 10.0 mi East 5.8 mph - N/A   Clear
5:53 AM 48.0 °F 39.9 °F 74% 30.21 in 10.0 mi East 4.6 mph - N/A   Clear
6:53 AM 46.9 °F 39.9 °F 77% 30.23 in 10.0 mi East 3.5 mph - N/A   Clear
7:53 AM 52.0 °F 42.1 °F 69% 30.26 in 10.0 mi East 8.1 mph - N/A   Clear
8:53 AM 57.0 °F 46.0 °F 67% 30.27 in 10.0 mi ESE 11.5 mph - N/A   Clear
9:53 AM 63.0 °F 46.0 °F 54% 30.28 in 10.0 mi ESE 8.1 mph - N/A   Clear
10:53 AM 66.0 °F 45.0 °F 47% 30.27 in 10.0 mi ESE 9.2 mph - N/A   Clear
11:53 AM 69.1 °F 44.1 °F 40% 30.24 in 10.0 mi ESE 6.9 mph - N/A   Clear
12:53 PM 69.1 °F 45.0 °F 42% 30.21 in 10.0 mi ESE 6.9 mph - N/A   Clear
1:53 PM 71.1 °F 46.9 °F 42% 30.19 in 10.0 mi ESE 6.9 mph - N/A   Clear
2:53 PM 71.1 °F 45.0 °F 39% 30.17 in 10.0 mi South 6.9 mph - N/A   Clear
3:53 PM 70.0 °F 46.0 °F 42% 30.17 in 10.0 mi SE 6.9 mph - N/A   Clear
4:53 PM 66.0 °F 51.1 °F 59% 30.17 in 10.0 mi South 5.8 mph - N/A   Clear
5:53 PM 62.1 °F 50.0 °F 65% 30.19 in 10.0 mi South 4.6 mph - N/A   Clear
6:53 PM 57.9 °F 50.0 °F 75% 30.19 in 10.0 mi SSE 4.6 mph - N/A   Clear
7:53 PM 57.0 °F 50.0 °F 77% 30.20 in 10.0 mi SSE 3.5 mph - N/A   Clear
8:53 PM 54.0 °F 50.0 °F 86% 30.20 in 10.0 mi SE 3.5 mph - N/A   Clear
9:53 PM 54.0 °F 50.0 °F 86% 30.20 in 10.0 mi SSE 3.5 mph - N/A   Clear
10:53 PM 53.1 °F 48.9 °F 86% 30.19 in 10.0 mi SE 3.5 mph - N/A   Clear
11:53 PM 52.0 °F 48.9 °F 89% 30.19 in 10.0 mi ESE 3.5 mph - N/A   Clear